• In Netherlands
  • List of Countries
  • For 7 days
  • Water Temperature
  • Satellite Maps
  • Weather Map
  • Weather Widgets
  • user-avatar
    Login

    Hourly Weather Khulna

    Today, 20 July, Friday

    Time Temperature Precipitation Wind Pressure Humidity
    00:00 +32°C° 0 mm 1 mps 747 mmHg 77%
    01:00 +32°C° 0 mm 1 mps 747 mmHg 78%
    02:00 +32°C° 0 mm 1 mps 746 mmHg 78%
    03:00 +32°C° 0 mm 1 mps 746 mmHg 79%
    04:00 +31°C° 0 mm 1 mps 746 mmHg 79%
    05:00 +31°C° 0 mm 1 mps 746 mmHg 80%
    06:00 +31°C° 0 mm 1 mps 746 mmHg 80%
    07:00 +34°C° 0 mm 2 mps 746 mmHg 74%
    08:00 +35°C° 0 mm 3 mps 746 mmHg 68%
    09:00 +36°C° 0 mm 3 mps 747 mmHg 62%
    10:00 +37°C° 1 mm 4 mps 746 mmHg 61%
    11:00 +37°C° 1 mm 4 mps 746 mmHg 59%
    12:00 +39°C° 1 mm 5 mps 746 mmHg 58%
    13:00 +37°C° 2.2 mm 5 mps 746 mmHg 60%
    14:00 +37°C° 2.2 mm 5 mps 745 mmHg 62%
    15:00 +38°C° 2.2 mm 6 mps 745 mmHg 64%
    16:00 +36°C° 0.5 mm 6 mps 745 mmHg 67%
    17:00 +35°C° 0.5 mm 5 mps 745 mmHg 71%
    18:00 +34°C° 0.5 mm 5 mps 745 mmHg 74%
    19:00 +33°C° 0 mm 5 mps 745 mmHg 76%
    20:00 +33°C° 0 mm 5 mps 745 mmHg 78%
    21:00 +32°C° 0 mm 5 mps 746 mmHg 80%
    22:00 +32°C° 0 mm 5 mps 746 mmHg 81%
    23:00 +32°C° 0 mm 5 mps 746 mmHg 82%

    Tomorrow, 21 July, Saturday

    Time Temperature Precipitation Wind Pressure Humidity
    00:00 +32°C° 0 mm 5 mps 746 mmHg 83%
    01:00 +30°C° 0 mm 5 mps 746 mmHg 83%
    02:00 +30°C° 0 mm 5 mps 745 mmHg 83%
    03:00 +30°C° 0 mm 4 mps 745 mmHg 84%
    04:00 +30°C° 0 mm 5 mps 745 mmHg 83%
    05:00 +30°C° 0 mm 5 mps 745 mmHg 83%
    06:00 +30°C° 0 mm 6 mps 745 mmHg 83%
    07:00 +32°C° 0.3 mm 7 mps 745 mmHg 81%
    08:00 +32°C° 0.3 mm 7 mps 745 mmHg 79%
    09:00 +33°C° 0.3 mm 8 mps 746 mmHg 77%
    10:00 +33°C° 1 mm 8 mps 746 mmHg 76%
    11:00 +33°C° 1 mm 8 mps 746 mmHg 76%
    12:00 +33°C° 1 mm 8 mps 746 mmHg 75%
    13:00 +33°C° 1.4 mm 8 mps 745 mmHg 76%
    14:00 +33°C° 1.4 mm 8 mps 745 mmHg 76%
    15:00 +33°C° 1.4 mm 8 mps 744 mmHg 76%
    16:00 +33°C° 0.4 mm 7 mps 744 mmHg 77%
    17:00 +33°C° 0.4 mm 7 mps 744 mmHg 78%
    18:00 +32°C° 0.4 mm 7 mps 744 mmHg 80%
    19:00 +32°C° 0.5 mm 7 mps 745 mmHg 81%
    20:00 +30°C° 0.5 mm 7 mps 745 mmHg 83%
    21:00 +30°C° 0.5 mm 7 mps 746 mmHg 85%
    22:00 +30°C° 0.3 mm 6 mps 746 mmHg 85%
    23:00 +30°C° 0.3 mm 6 mps 746 mmHg 86%

    Day after tomorrow, 22 July, Sunday

    Time Temperature Precipitation Wind Pressure Humidity
    00:00 +30°C° 0.3 mm 5 mps 746 mmHg 86%
    01:00 +29°C° 0.1 mm 5 mps 746 mmHg 86%
    02:00 +29°C° 0.1 mm 5 mps 746 mmHg 87%
    03:00 +29°C° 0.1 mm 5 mps 745 mmHg 87%
    04:00 +29°C° 0.4 mm 5 mps 746 mmHg 87%
    05:00 +29°C° 0.4 mm 5 mps 746 mmHg 87%
    06:00 +29°C° 0.4 mm 5 mps 746 mmHg 87%
    07:00 +30°C° 0.7 mm 5 mps 746 mmHg 85%
    08:00 +30°C° 0.7 mm 5 mps 747 mmHg 83%
    09:00 +32°C° 0.7 mm 5 mps 747 mmHg 82%
    10:00 +33°C° 1.2 mm 6 mps 747 mmHg 78%
    11:00 +34°C° 1.2 mm 6 mps 747 mmHg 75%
    12:00 +35°C° 1.2 mm 6 mps 747 mmHg 71%
    13:00 +34°C° 1.8 mm 6 mps 747 mmHg 72%
    14:00 +34°C° 1.8 mm 6 mps 746 mmHg 73%
    15:00 +34°C° 1.8 mm 6 mps 746 mmHg 74%
    16:00 +34°C° 1 mm 6 mps 746 mmHg 75%
    17:00 +33°C° 1 mm 5 mps 746 mmHg 77%
    18:00 +33°C° 1 mm 5 mps 746 mmHg 78%
    19:00 +32°C° 0.1 mm 4 mps 746 mmHg 81%
    20:00 +30°C° 0.1 mm 4 mps 747 mmHg 84%
    21:00 +30°C° 0.1 mm 4 mps 748 mmHg 87%
    22:00 +30°C° 0.1 mm 4 mps 748 mmHg 87%
    23:00 +29°C° 0.1 mm 4 mps 748 mmHg 87%

    23 July, Monday

    Time Temperature Precipitation Wind Pressure Humidity
    00:00 +29°C° 0.1 mm 3 mps 748 mmHg 88%
    01:00 +29°C° 0.1 mm 3 mps 747 mmHg 88%
    02:00 +29°C° 0.1 mm 3 mps 747 mmHg 88%
    03:00 +29°C° 0.1 mm 3 mps 747 mmHg 89%
    04:00 +29°C° 0.1 mm 3 mps 747 mmHg 89%
    05:00 +29°C° 0.1 mm 3 mps 747 mmHg 89%
    06:00 +29°C° 0.1 mm 3 mps 747 mmHg 89%
    07:00 +30°C° 0.3 mm 3 mps 748 mmHg 84%
    08:00 +32°C° 0.3 mm 4 mps 748 mmHg 79%
    09:00 +33°C° 0.3 mm 5 mps 748 mmHg 74%
    10:00 +34°C° 1.1 mm 5 mps 748 mmHg 72%
    11:00 +34°C° 1.1 mm 5 mps 748 mmHg 70%
    12:00 +35°C° 1.1 mm 5 mps 748 mmHg 67%
    13:00 +35°C° 0.8 mm 6 mps 747 mmHg 66%
    14:00 +35°C° 0.8 mm 6 mps 747 mmHg 65%
    15:00 +36°C° 0.8 mm 6 mps 746 mmHg 64%
    16:00 +35°C° 0.7 mm 5 mps 747 mmHg 67%
    17:00 +34°C° 0.7 mm 5 mps 747 mmHg 70%
    18:00 +33°C° 0.7 mm 4 mps 747 mmHg 73%
    19:00 +33°C° 0 mm 4 mps 748 mmHg 76%
    20:00 +32°C° 0 mm 4 mps 748 mmHg 79%
    21:00 +30°C° 0 mm 4 mps 749 mmHg 82%
    22:00 +30°C° 0 mm 3 mps 749 mmHg 83%
    23:00 +30°C° 0 mm 3 mps 749 mmHg 84%

    24 July, Tuesday

    Time Temperature Precipitation Wind Pressure Humidity
    00:00 +30°C° 0 mm 3 mps 749 mmHg 85%
    01:00 +30°C° 0.3 mm 3 mps 749 mmHg 86%
    02:00 +29°C° 0.3 mm 3 mps 748 mmHg 86%
    03:00 +29°C° 0.3 mm 3 mps 748 mmHg 86%
    04:00 +29°C° 0.5 mm 3 mps 748 mmHg 87%
    05:00 +29°C° 0.5 mm 3 mps 749 mmHg 87%
    06:00 +29°C° 0.5 mm 2 mps 749 mmHg 87%
    07:00 +30°C° 0.4 mm 3 mps 749 mmHg 82%
    08:00 +31°C° 0.4 mm 3 mps 750 mmHg 77%
    09:00 +33°C° 0.4 mm 3 mps 751 mmHg 72%
    10:00 +34°C° 0.6 mm 3 mps 750 mmHg 68%
    11:00 +35°C° 0.6 mm 3 mps 750 mmHg 65%
    12:00 +36°C° 0.6 mm 4 mps 750 mmHg 61%
    13:00 +36°C° 0.7 mm 3 mps 750 mmHg 61%
    14:00 +36°C° 0.7 mm 3 mps 749 mmHg 61%
    15:00 +36°C° 0.7 mm 3 mps 749 mmHg 61%
    16:00 +35°C° 0.3 mm 3 mps 749 mmHg 65%
    17:00 +34°C° 0.3 mm 3 mps 749 mmHg 68%
    18:00 +34°C° 0.3 mm 3 mps 749 mmHg 71%
    19:00 +33°C° 0 mm 3 mps 749 mmHg 74%
    20:00 +31°C° 0 mm 3 mps 750 mmHg 76%
    21:00 +31°C° 0 mm 3 mps 750 mmHg 79%
    22:00 +30°C° 0 mm 3 mps 750 mmHg 80%
    23:00 +30°C° 0 mm 3 mps 750 mmHg 82%

    25 July, Wednesday

    Time Temperature Precipitation Wind Pressure Humidity
    00:00 +30°C° 0 mm 3 mps 750 mmHg 84%
    01:00 +30°C° 0.8 mm 3 mps 750 mmHg 84%
    02:00 +29°C° 0.8 mm 3 mps 749 mmHg 85%
    03:00 +29°C° 0.8 mm 3 mps 749 mmHg 85%
    04:00 +29°C° 0.7 mm 3 mps 749 mmHg 85%
    05:00 +29°C° 0.7 mm 3 mps 750 mmHg 85%
    06:00 +29°C° 0.7 mm 3 mps 750 mmHg 85%
    07:00 +30°C° 0.4 mm 3 mps 750 mmHg 80%
    08:00 +33°C° 0.4 mm 3 mps 750 mmHg 74%
    09:00 +34°C° 0.4 mm 3 mps 750 mmHg 69%
    10:00 +35°C° 1.1 mm 3 mps 750 mmHg 65%
    11:00 +36°C° 1.1 mm 3 mps 750 mmHg 62%
    12:00 +36°C° 1.1 mm 3 mps 749 mmHg 59%
    13:00 +37°C° 1.5 mm 3 mps 749 mmHg 59%
    14:00 +37°C° 1.5 mm 3 mps 748 mmHg 59%
    15:00 +37°C° 1.5 mm 3 mps 748 mmHg 59%
    16:00 +36°C° 0.5 mm 3 mps 747 mmHg 62%
    17:00 +36°C° 0.5 mm 3 mps 747 mmHg 65%
    18:00 +35°C° 0.5 mm 2 mps 747 mmHg 68%
    19:00 +34°C° 0.2 mm 3 mps 748 mmHg 72%
    20:00 +33°C° 0.2 mm 3 mps 748 mmHg 75%
    21:00 +31°C° 0.2 mm 3 mps 748 mmHg 79%
    22:00 +31°C° 1 mm 3 mps 748 mmHg 81%
    23:00 +31°C° 1 mm 3 mps 748 mmHg 83%
    Show more